Home > Weather > Majuro > Past weeks

Flag for Marshall Islands Past Weather in Majuro, Marshall Islands — Yesterday and Last 2 Weeks

Now
87 °F

Scattered clouds.


Feels Like: 101 °F
Forecast: 82 / 86 °F
Wind: 3 mph from North

Location: Majuro Atoll

Current Time: May 26, 2016 at 10:54:43 AM

Latest Report: May 26, 2016 at 9:52 AM


Visibility: 15 mi

Pressure: 29.90 "Hg

Humidity: 75%

Dew Point: 78 °F

Location of MajuroLocation

Past Weather in Majuro — Graph

°F

Majuro Temperature Yesterday

Maximum temperature yesterday: 88 °F (at 12:54 PM)
Minimum temperature yesterday: 82 °F (at 11:52 PM)
Average temperature yesterday: 84 °F

High & Low Weather Summary for the Past Weeks

 TemperatureHumidityPressure
High89 °F (May 23, 12:54 PM)94% (May 13, 6:52 PM)29.91 "Hg (May 13, 6:52 PM)
Low76 °F (May 20, 6:54 AM)70% (May 25, 12:54 PM)29.70 "Hg (May 19, 4:54 PM)
Average84 °F83%29.82 "Hg
* Reported May 11 9:51 AM — May 26 9:52 AM, Majuro, Weather by CustomWeather, © 2016

Note: Actual official high and low records may vary slightly from our data, if they occured in-between our weather recording intervals... More about our weather records

Advertising

Majuro Weather History for the Previous 24 Hours

Scroll right to see more
 ConditionsComfort  
Time TempWeatherWind HumidityBarometerVisibility
9:52 AM
Thu, May 26
87 °FScattered clouds.3 mph75%29.90 "Hg15 mi
8:53 AM86 °FScattered clouds.8 mph76%29.90 "Hg15 mi
7:55 AM84 °FPartly sunny.8 mph78%29.90 "Hg15 mi
6:52 AM83 °FPartly cloudy.8 mph82%29.88 "Hg15 mi
5:52 AM82 °FPassing clouds.3 mph84%29.86 "Hg15 mi
4:57 AM82 °FPassing clouds.6 mph81%29.86 "Hg15 mi
3:53 AM82 °FPassing clouds.9 mph79%29.86 "Hg15 mi
2:50 AM82 °FPassing clouds.8 mph79%29.88 "Hg15 mi
1:54 AM82 °FPassing clouds.9 mph79%29.88 "Hg15 mi
12:53 AM82 °FPassing clouds.5 mph79%29.90 "Hg15 mi
11:52 PM
Wed, May 25
82 °FPartly cloudy.8 mph79%29.91 "Hg15 mi
10:50 PM83 °FPartly cloudy.5 mph79%29.91 "Hg15 mi
9:52 PM83 °FPartly cloudy.3 mph79%29.90 "Hg15 mi
8:52 PM83 °FPassing clouds.7 mph79%29.89 "Hg15 mi
7:52 PM83 °FPassing clouds.2 mph81%29.88 "Hg15 mi
6:52 PM83 °FScattered clouds.5 mph80%29.86 "Hg15 mi
5:50 PM85 °FBroken clouds.3 mph74%29.85 "Hg15 mi
4:51 PM85 °FBroken clouds.2 mph73%29.83 "Hg15 mi
3:51 PM87 °FBroken clouds.12 mph71%29.83 "Hg15 mi
2:52 PM87 °FBroken clouds.8 mph72%29.84 "Hg15 mi
1:55 PM87 °FMore clouds than sun.12 mph70%29.86 "Hg15 mi
12:54 PM88 °FMore clouds than sun.13 mph70%29.88 "Hg15 mi
11:54 AM86 °FMore clouds than sun.13 mph76%29.88 "Hg15 mi
10:51 AM87 °FMore clouds than sun.13 mph73%29.88 "Hg15 mi
Weather by CustomWeather, © 2016

See weather overviewHow to use our weather pages